User: anonymous   Login
Location: Drignac
(45.1667°N, 2.0333°E)
Time: 12:29:16
(UTC+00:00)
Language:

BREEZE-M DEB (TANK) - Orbit

View from above orbital plane
View from above orbital plane
View from above satellite
View from above satellite

Ground track
Ground track

The orbit data is extracted from the following two-line orbital elements,

1 42751U 17032C   20190.72104502 +.00001551 +00000-0 +27126-3 0  9998
2 42751 049.6997 286.6262 4646597 212.0931 108.5931 06.20910352069837
Epoch (UTC): 08 July 2020 17:18:18
Eccentricity: 0.4646597
inclination: 49.6997°
perigee height: 316 km
apogee height: 11936 km
right ascension of ascending node: 286.6262°
argument of perigee: 212.0931°
revolutions per day: 6.20910352
mean anomaly at epoch: 108.5931°
orbit number at epoch: 6983

The dashed part of the orbit path shows where the satellite is in the earth's shadow,  

DLR